Satoro-T3

operational
NORAD ID: 64589 Int'l Des: 2025-135 Owner: SATORO Country: TW
LEOCIRCULARRETROGRADESSO

Satoro-T3について

説明を読み込み中...

リアルタイム位置

3D地球を読み込み中...

次回通過

高度履歴

Altitude vs Time

uPlot chart will show altitude changes over time

軌道要素

1 64589U 25135BP 26062.08103221 .00002837 00000-0 27240-3 0 9999
2 64589 97.7589 177.8076 0004100 343.4381 16.6704 14.93856484 38069
Epoch: Mar 3, 2026 • Age: 18 hours

現在のステータス

高度 585.7 km
速度 7.57 km/s
衛星直下点 11.60°N, 104.26°E
打ち上げ日 Jun 23, 2025
運用期間 0.6 years
タイプ other

技術仕様

分類 Payload
質量 4.00 kg
乾燥質量 4.00 kg
総質量 4.00 kg
長さ 0.30 m
直径 0.10 m
スパン 0.30 m
形状 Box
製造者 SATORO
バスタイプ Cubesat 3U
フェーズステータス In Orbit
所有者/国 SATORO/TW

大規模コンステレーション

Loading constellations...